Preview of NWS' New Version of Forecast
This preview is not operational and should not be used for support decisions.

Regional Weather Roundup (RWR)

Issued by National Weather Service (NWS)

                            
000
ASUS46 KSEW 201910
RWRWA 

WASHINGTON REGIONAL WEATHER ROUNDUP
NATIONAL WEATHER SERVICE SEATTLE WA
1200 PM PDT TUE AUG 20 2019

NOTE:"FAIR" INDICATES FEW OR NO CLOUDS BELOW 12,000 FEET WITH NO 
SIGNIFICANT WEATHER AND/OR OBSTRUCTIONS TO VISIBILITY.

WAZ507-509-555>559-202000-
SEATTLE, TACOMA, EVERETT, AND VICINITY
  
CITY           SKY/WX    TMP DP  RH WIND       PRES   REMARKS
EVERETT        FAIR      71  55  56 W6        29.95S                  
BOEING FIELD   FAIR      74  53  48 CALM      29.93F                  
RENTON         FAIR      77  56  48 S5        29.92F                  
SEATAC AIRPORT PTSUNNY   73  55  53 S7        29.95F                  
JBLM-MCCHORD   FAIR      76  62  60 W6        29.94F                  
PUYALLUP       FAIR      79  55  44 CALM      29.95S                  
BREMERTON      FAIR      73  55  53 SW10      29.95S                  
JBLM-FT LEWIS  NOT AVBL                                               
TACOMA NARROWS FAIR      70  54  56 S7        29.95S                  
$$
 
WAZ001-503-506-510-514-515-202000-
NORTH INTERIOR
  
CITY           SKY/WX    TMP DP  RH WIND       PRES   REMARKS
BELLINGHAM     FAIR      71  53  52 VRB3      29.92F                  
FRIDAY HARBOR  FAIR      71  53  52 S7        29.94S                  
EASTSOUND      FAIR      64  55  72 NW5       29.91F                  
PORT ANGELES   FAIR      65  51  60 NE5       29.94F                  
EDIZ HOOK      FAIR      62  52  71 CALM      29.94S                  
PORT TOWNSEND  FAIR      72  54  53 E9        29.91F                  
NAS WHIDBEY    CLOUDY    65  52  62 NW6       29.97                   
ARLINGTON      FAIR      75  57  53 S8        29.93F                  
BURLINGTON     SUNNY     81  57  44 VRB5      29.92F                  
$$
 
WAZ020-022-039-040-504-511-512-202000-
SOUTHWEST INTERIOR
  
CITY           SKY/WX    TMP DP  RH WIND       PRES   REMARKS
SHELTON        FAIR      75  54  47 VRB7      29.92F                  
OLYMPIA        FAIR      74  55  51 S7        29.94F                  
CHEHALIS       FAIR      77  61  57 CALM      29.95S                  
KELSO          FAIR      76  57  51 S9        29.95F                  
VANCOUVER      FAIR      76  56  49 CALM      29.94F                  
SCAPPOOSE, OR  FAIR      74  59  59 VRB5      29.94F                  
PORTLAND, OR   PTSUNNY   77  56  48 N3        29.95F                  
$$
 
WAZ021-516-517-202000-
WASHINGTON COAST
  
CITY           SKY/WX    TMP DP  RH WIND       PRES   REMARKS
FORKS          FAIR      67  56  67 SW8       29.94R                  
HOQUIAM        FAIR      68  60  75 W16       29.96S                  
ASTORIA, OR    FAIR      65  58  78 SW9       29.97S                  
$$
 
WAZ019-023-024-040-567>569-202000-
CASCADE MOUNTAINS AND COLUMBIA GORGE
  
CITY           SKY/WX    TMP DP  RH WIND       PRES   REMARKS
STAMPEDE PASS  FAIR      74  46  36 CALM      30.06S                  
TROUTDALE, OR  FAIR      76  56  49 CALM      29.94F                  
HOOD RIVER, OR FAIR      77  52  41 CALM      29.92F                  
THE DALLES, OR FAIR      81  54  39 NW6       29.89F                  
$$

WAZ026-027-041>044-520-521-202000-
EAST SLOPES
  
CITY           SKY/WX    TMP DP  RH WIND       PRES   REMARKS
OMAK           FAIR      84  42  22 S6        29.95F                  
WENATCHEE      FAIR      80  43  26 NW3       29.93F                  
ELLENSBURG     FAIR      82  50  32 E6        29.95F                  
YAKIMA           N/A     84  48  28 MISG      29.92F                  
SUNNYSIDE ARPT FAIR      82  55  39 CALM      29.92F                  
YAKIMA TC      FAIR      84  45  25 W5        29.91F                  
$$

WAZ028-034-035-202000-
COLUMBIA BASIN
  
CITY           SKY/WX    TMP DP  RH WIND       PRES   REMARKS
EPHRATA        FAIR      85  44  23 CALM      29.93F                  
MOSES LAKE     FAIR      88  45  22 VRB5      29.94F                  
PASCO          FAIR      86  52  30 N6        29.90F                  
RICHLAND ARPT  FAIR      86  52  30 CALM      29.90                   
HERMISTON, OR  FAIR      85  54  34 CALM      29.90F                  
$$

WAZ036>038-202000-
NORTHEAST WASHINGTON
  
CITY           SKY/WX    TMP DP  RH WIND       PRES   REMARKS
SPOKANE GEIGER FAIR      80  49  33 VRB3      30.00F                  
SPOKANE FELTS  FAIR      83  48  29 CALM      29.99F                  
FAIRCHILD AFB  FAIR      81  46  28 E8        30.01F                  
COEURDALENE,ID FAIR      83  51  33 VRB5      30.01F                  
DEER PARK      FAIR      84  48  28 MISG      30.01F                  
$$

WAZ029>033-202000-
SOUTHEAST WASHINGTON
  
CITY           SKY/WX    TMP DP  RH WIND       PRES   REMARKS
PULLMAN        FAIR      85  43  22 VRB5      30.01F                  
LEWISTON, ID   FAIR      85  47  26 CALM      29.93F                  
WALLA WALLA    FAIR      88  47  24 VRB3      29.91F                  
PENDLETON, OR  FAIR      86  47  25 NW9       29.92F                  
$$